DMSP 5D-2 F13 DEB, 42322

Orbit data source: Space-Track

DMSP 5D-2 F13 DEB, 42322 is space debris in SSO originally from a launch on Fri, 24 Mar 1995 UTC launched from the Air Force Western Test Range (AFWTR). Debris objects in space refer to the collection of defunct objects orbiting the Earth. Examples of debris include non-operational satellites, rocket bodies, and fragments generated from explosions, collisions, or faulty payload assembly.

Loading next visibility...
Identifier
42322, 1995-015JQ
Orbit
SSO
Country
Flag of USUS
Related business
Manufacturer
Unknown
Mission
Spacecraft
Bus & Motor
Unknown
Mass
Unknown
Launch date (UTC)
1995-03-24 (31 years ago)
Launch vehicle
Unknown
Launch site
Air Force Western Test Range (AFWTR)
Object type
Payload
Rocket body
Debris
Shape & HBR
Unknown shape, 0.1 m
Radar Cross Section
Small (<0.1 m²)

Expand to show TLE details & history
Last TLE update: 2 days ago

TLE from 2 days ago
0 DMSP 5D-2 F13 DEB
1 42322U 95015JQ  26131.92358197  .00020335  00000-0  26704-2 0  9994
2 42322  98.7574 199.7759 0022676 107.6725 252.6962 14.80110078577475
Epoch: 2026-05-11T22:09Z
TLE epoch observation values (Epoch: 2026-05-11T22:09:57.482Z)
Latitude
-0.00007°
Longitude
-2.41894°
Altitude
636.731 km
Speed
7.537 km/s
True Right ascension
13h 19m 06s
True Declination
0° 00' 00"
Sunlit
Object was in full shadow at epoch
Visualization orbit readout
Latitude
Unknown
Longitude
Unknown
Altitude
Unknown
Speed
Unknown
Apparent Right ascension
Unknown
Apparent Declination
Unknown
Sunlit
N/A
Visualization observer readout
Local Sidereal Time
23:16:07
Azimuth
Unknown
Elevation
Unknown
Doppler factor
Unknown
Orbital elements
Apogee altitude
641.941 km
Perigee altitude
610.175 km
Semi-major axis
7,004.195 km
Eccentricity
0.00227
Inclination
98.7574°
RAAN
199.7759°
Arg. of periapsis
107.6725°
True anomaly
252.44832°
Mean anomaly
252.6962°
Eccentric anomaly
252.57224°
Mean motion
3.70259 °/min
Orbital period
97.23 mins
BSTAR
0.0026704
Loading maneuver chart data...
Computing Atmospheric mass density...

Documentation

Showing up to 5 results
|